Wed, 01 Dec 2021 13:37:03 UTC | login

Information for RPM qdox-2.0.0-6.1.el8s.noarch.rpm

ID286194
Nameqdox
Version2.0.0
Release6.1.el8s
Epoch
Archnoarch
SummaryExtract class/interface/method definitions from sources
DescriptionQDox is a high speed, small footprint parser for extracting class/interface/method definitions from source files complete with JavaDoc @tags. It is designed to be used by active code generators or documentation tools.
Build Time2021-09-23 11:04:24 GMT
Size311,020
8265731ba7f5a4f667f84050d9ece93e
LicenseASL 2.0
Buildrootvirt8s-ovirt-44-el8s-build-106535-858784
Provides
mvn(com.thoughtworks.qdox:qdox) = 2.0.0
mvn(com.thoughtworks.qdox:qdox:pom:) = 2.0.0
mvn(qdox:qdox) = 2.0.0
mvn(qdox:qdox:pom:) = 2.0.0
osgi(com.thoughtworks.qdox) = 1.6.3
qdox = 2.0.0-6.1.el8s
Obsoletes No Obsoletes
Conflicts No Conflicts
Requires
(java-headless or java-11-headless)
javapackages-filesystem
rpmlib(CompressedFileNames) <= 3.0.4-1
rpmlib(FileDigests) <= 4.6.0-1
rpmlib(PayloadFilesHavePrefix) <= 4.0-1
rpmlib(PayloadIsXz) <= 5.2-1
rpmlib(RichDependencies) <= 4.12.0-1
Recommends No Recommends
Suggests No Suggests
Supplements No Supplements
Enhances No Enhances
Files
1 through 7 of 7
Name ascending sort Size
/usr/share/doc/qdox0
/usr/share/doc/qdox/README.md21,068
/usr/share/java/qdox.jar325,134
/usr/share/licenses/qdox0
/usr/share/licenses/qdox/LICENSE.txt589
/usr/share/maven-metadata/qdox.xml1,251
/usr/share/maven-poms/qdox.pom9,226
Component of
Page:
1 through 50 of 95 >>>
Buildroot descending sort Created State
virt8s-ovirt-44-el8s-build-107518-860259 2021-09-30 16:11:36 expired
virt8s-ovirt-44-el8s-build-107516-860259 2021-09-30 16:07:04 expired
virt8s-ovirt-44-el8s-build-107514-860255 2021-09-30 15:59:48 expired
virt8s-ovirt-44-el8s-build-107512-860253 2021-09-30 15:55:21 expired
virt8s-ovirt-44-el8s-build-107510-860251 2021-09-30 15:51:01 expired
virt8s-ovirt-44-el8s-build-107508-860249 2021-09-30 15:46:34 expired
virt8s-ovirt-44-el8s-build-107506-860247 2021-09-30 15:42:31 expired
virt8s-ovirt-44-el8s-build-107504-860245 2021-09-30 15:38:18 expired
virt8s-ovirt-44-el8s-build-107502-860243 2021-09-30 15:33:23 expired
virt8s-ovirt-44-el8s-build-107500-860241 2021-09-30 15:28:17 expired
virt8s-ovirt-44-el8s-build-107498-860239 2021-09-30 15:24:01 expired
virt8s-ovirt-44-el8s-build-107494-860239 2021-09-30 15:19:10 expired
virt8s-ovirt-44-el8s-build-107492-860235 2021-09-30 15:13:58 expired
virt8s-ovirt-44-el8s-build-107490-860235 2021-09-30 15:09:33 expired
virt8s-ovirt-44-el8s-build-107488-860233 2021-09-30 15:03:13 expired
virt8s-ovirt-44-el8s-build-107486-860231 2021-09-30 14:59:10 expired
virt8s-ovirt-44-el8s-build-107483-860229 2021-09-30 14:46:30 expired
virt8s-ovirt-44-el8s-build-107481-860225 2021-09-30 14:37:38 expired
virt8s-ovirt-44-el8s-build-107479-860223 2021-09-30 14:33:26 expired
virt8s-ovirt-44-el8s-build-107477-860221 2021-09-30 14:29:15 expired
virt8s-ovirt-44-el8s-build-107475-860219 2021-09-30 14:24:48 expired
virt8s-ovirt-44-el8s-build-107473-860031 2021-09-30 14:20:10 expired
virt8s-ovirt-44-el8s-build-107471-860031 2021-09-30 14:15:51 expired
virt8s-ovirt-44-el8s-build-107370-860027 2021-09-29 13:48:45 expired
virt8s-ovirt-44-el8s-build-107368-860025 2021-09-29 13:44:55 expired
virt8s-ovirt-44-el8s-build-107366-860019 2021-09-29 13:40:19 expired
virt8s-ovirt-44-el8s-build-107363-860019 2021-09-29 13:35:31 expired
virt8s-ovirt-44-el8s-build-107358-860014 2021-09-29 13:07:33 expired
virt8s-ovirt-44-el8s-build-107348-860009 2021-09-29 12:55:19 expired
virt8s-ovirt-44-el8s-build-107344-860007 2021-09-29 12:49:58 expired
virt8s-ovirt-44-el8s-build-107338-860004 2021-09-29 12:45:35 expired
virt8s-ovirt-44-el8s-build-107334-860002 2021-09-29 12:37:46 expired
virt8s-ovirt-44-el8s-build-107332-859999 2021-09-29 12:33:25 expired
virt8s-ovirt-44-el8s-build-107330-859997 2021-09-29 12:28:49 expired
virt8s-ovirt-44-el8s-build-107327-859994 2021-09-29 12:23:42 expired
virt8s-ovirt-44-el8s-build-107324-859992 2021-09-29 12:17:48 expired
virt8s-ovirt-44-el8s-build-107322-859986 2021-09-29 12:13:11 expired
virt8s-ovirt-44-el8s-build-107320-859970 2021-09-29 12:08:38 expired
virt8s-ovirt-44-el8s-build-107305-859970 2021-09-29 12:04:15 expired
virt8s-ovirt-44-el8s-build-107274-859968 2021-09-29 11:33:59 expired
virt8s-ovirt-44-el8s-build-107272-859962 2021-09-29 11:28:06 expired
virt8s-ovirt-44-el8s-build-107270-859962 2021-09-29 11:23:17 expired
virt8s-ovirt-44-el8s-build-107216-859960 2021-09-29 10:52:25 expired
virt8s-ovirt-44-el8s-build-107212-859956 2021-09-29 10:44:32 expired
virt8s-ovirt-44-el8s-build-107210-859954 2021-09-29 10:39:58 expired
virt8s-ovirt-44-el8s-build-107208-859952 2021-09-29 10:35:36 expired
virt8s-ovirt-44-el8s-build-107206-859950 2021-09-29 10:31:09 expired
virt8s-ovirt-44-el8s-build-107204-859948 2021-09-29 10:26:41 expired
virt8s-ovirt-44-el8s-build-107198-859945 2021-09-29 10:21:56 expired
virt8s-ovirt-44-el8s-build-107196-859941 2021-09-29 10:17:45 expired